Location: Huppendorf
(49.9333°N, 11.1500°E)
Time: 09:37:46
(UTC+00:00)

Cosmos 2219 - Pass Details

Date: 27 February 2020
Orbit: 832 x 862 km, 71.1° (Epoch: 09 April)

Event Time Altitude Azimuth Distance (km) Brightness Sun altitude
Rises 18:40:57 0° 331° (NNW) 3,441 6.9 -18.0°
Reaches altitude 10° 18:43:26 10° 334° (NNW) 2,504 6.1 -18.4°
Maximum altitude 18:49:12 71° 58° (ENE) 914 3.2 -19.4°
Enters shadow 18:52:07 30° 136° (SE) 1,500 4.0 -19.8°
